Location: Biharia
(46.4333°N, 22.8000°E)
Time: 10:31:43
(UTC+00:00)

H-2A R/B - Pass Details

Date: 16 October 2021
Orbit: 528 x 650 km, 98.3° (Epoch: 07 December)

Event Time Altitude Azimuth Distance (km) Brightness Sun altitude
Rises 17:15:20 0° 173° (S) 2,935 5.9 -17.1°
Reaches altitude 10° 17:17:34 10° 176° (S) 2,019 5.1 -17.5°
Maximum altitude 17:21:56 63° 258° (WSW) 701 3.0 -18.3°
Drops below altitude 10° 17:26:12 10° 340° (NNW) 1,973 5.5 -19.0°
Sets 17:28:23 0° 344° (NNW) 2,862 6.3 -19.4°
